QPF
0.00 0.00 0.00 0.00 0.00 0.00 0.00 0.00 0.00 0.00 0.00 0.00 0.00 0.00 0.00 0.00 0.00 0.00 0.00 0.00 0.00 0.00 0.00 0.00 0.00 0.00 0.00 0.00 0.00 0.00 0.00 0.00 0.01 0.00 0.00 0.00 0.00 0.00 0.00 0.01 0.01 0.01 0.00
0.00 0.00 0.00 0.00 0.00 0.00 0.00 0.00 0.00 0.00 0.00 0.00 0.00 0.00 0.00 0.00 0.00 0.00 0.00 0.00 0.00 0.00 0.00 0.00 0.00 0.00 0.00 0.00 0.00 0.00 0.00 0.01 0.01 0.00 0.00 0.00 0.00 0.00 0.00 0.00 0.01 0.02 0.01
0.00 0.00 0.00 0.00 0.00 0.00 0.00 0.00 0.00 0.00 0.00 0.00 0.00 0.00 0.00 0.00 0.00 0.00 0.00 0.00 0.00 0.00 0.00 0.00 0.00 0.00 0.00 0.00 0.00 0.00 0.00 0.00 0.00 0.00 0.00 0.00 0.00 0.00 0.00 0.00 0.01 0.01 0.01
0.00 0.00 0.00 0.00 0.00 0.00 0.00 0.00 0.00 0.00 0.00 0.00 0.00 0.00 0.00 0.00 0.00 0.00 0.00 0.00 0.00 0.00 0.00 0.00 0.00 0.00 0.00 0.00 0.00 0.00 0.00 0.00 0.00 0.00 0.00 0.00 0.00 0.00 0.00 0.00 0.00 0.01 0.00
0.00 0.00 0.00 0.00 0.00 0.00 0.00 0.00 0.00 0.00 0.00 0.00 0.00 0.00 0.00 0.00 0.00 0.00 0.00 0.00 0.00 0.00 0.00 0.00 0.00 0.00 0.00 0.00 0.00 0.00 0.00 0.00 0.00 0.00 0.00 0.00 0.00 0.00 0.00 0.00 0.01 0.00 0.00
0.00 0.00 0.00 0.00 0.00 0.00 0.00 0.00 0.00 0.00 0.00 0.00 0.00 0.00 0.00 0.00 0.00 0.00 0.00 0.00 0.00 0.00 0.00 0.00 0.00 0.00 0.00 0.00 0.00 0.00 0.00 0.00 0.00 0.00 0.00 0.00 0.00 0.00 0.00 0.00 0.00 0.00 0.00
0.00 0.00 0.00 0.00 0.00 0.00 0.00 0.00 0.00 0.00 0.00 0.00 0.00 0.00 0.00 0.00 0.00 0.00 0.00 0.00 0.00 0.00 0.00 0.00 0.00 0.00 0.00 0.00 0.00 0.00 0.00 0.00 0.00 0.00 0.00 0.00 0.00 0.01 0.01 0.00 0.00 0.00 0.00
0.00 0.00 0.00 0.00 0.00 0.00 0.00 0.00 0.00 0.00 0.00 0.00 0.00 0.00 0.00 0.00 0.00 0.00 0.00 0.00 0.00 0.00 0.00 0.00 0.00 0.00 0.00 0.00 0.00 0.00 0.00 0.00 0.00 0.00 0.01 0.01 0.02 0.01 0.01 0.01 0.00 0.00 0.00
0.00 0.00 0.00 0.00 0.00 0.00 0.00 0.00 0.00 0.00 0.00 0.00 0.00 0.00 0.00 0.00 0.00 0.00 0.00 0.00 0.00 0.00 0.00 0.00 0.00 0.00 0.00 0.01 0.00 0.00 0.00 0.00 0.00 0.01 0.03 0.03 0.01 0.00 0.00 0.00 0.00 0.00 0.00
0.00 0.00 0.00 0.00 0.00 0.00 0.00 0.00 0.00 0.00 0.00 0.00 0.00 0.00 0.00 0.00 0.00 0.00 0.00 0.00 0.00 0.00 0.00 0.00 0.00 0.00 0.01 0.00 0.00 0.00 0.00 0.01 0.00 0.00 0.00 0.00 0.00 0.00 0.00 0.00 0.00 0.00 0.00
0.00 0.00 0.00 0.00 0.00 0.00 0.00 0.00 0.00 0.00 0.00 0.00 0.00 0.00 0.00 0.00 0.00 0.00 0.00 0.00 0.00 0.00 0.00 0.00 0.00 0.01 0.01 0.00 0.00 0.00 0.00 0.00 0.00 0.00 0.00 0.00 0.00 0.00 0.00 0.00 0.00 0.00 0.00
0.00 0.00 0.00 0.00 0.00 0.00 0.00 0.00 0.00 0.00 0.00 0.00 0.00 0.00 0.00 0.00 0.00 0.00 0.00 0.00 0.01 0.00 0.00 0.00 0.00 0.01 0.00 0.00 0.00 0.00 0.00 0.00 0.00 0.00 0.00 0.00 0.00 0.00 0.00 0.00 0.00 0.00 0.00
0.00 0.00 0.00 0.00 0.00 0.00 0.00 0.00 0.00 0.00 0.00 0.00 0.00 0.00 0.00 0.00 0.00 0.00 0.00 0.01 0.01 0.00 0.00 0.02 0.01 0.00 0.00 0.00 0.00 0.00 0.00 0.00 0.00 0.00 0.00 0.00 0.00 0.00 0.00 0.00 0.00 0.00 0.00
0.00 0.00 0.00 0.00 0.00 0.00 0.00 0.00 0.00 0.00 0.00 0.00 0.00 0.00 0.00 0.00 0.00 0.00 0.00 0.01 0.00 0.00 0.01 0.01 0.00 0.00 0.00 0.00 0.00 0.00 0.00 0.00 0.00 0.00 0.00 0.00 0.00 0.00 0.00 0.00 0.00 0.00 0.00
0.00 0.00 0.00 0.00 0.00 0.00 0.00 0.00 0.00 0.00 0.00 0.00 0.00 0.00 0.00 0.00 0.00 0.00 0.01 0.01 0.01 0.02 0.01 0.00 0.00 0.00 0.00 0.00 0.00 0.00 0.00 0.00 0.00 0.00 0.00 0.00 0.00 0.00 0.00 0.00 0.00 0.00 0.00
0.00 0.00 0.00 0.00 0.00 0.00 0.00 0.00 0.00 0.00 0.00 0.00 0.00 0.00 0.00 0.00 0.00 0.01 0.00 0.01 0.02 0.01 0.00 0.00 0.00 0.00 0.00 0.00 0.00 0.00 0.00 0.00 0.00 0.00 0.00 0.00 0.00 0.00 0.00 0.00 0.00 0.00 0.00
0.00 0.00 0.00 0.00 0.00 0.00 0.00 0.00 0.00 0.00 0.00 0.00 0.00 0.00 0.00 0.00 0.00 0.00 0.01 0.01 0.00 0.00 0.00 0.00 0.00 0.00 0.00 0.00 0.00 0.00 0.00 0.00 0.00 0.00 0.00 0.00 0.00 0.00 0.00 0.00 0.00 0.00 0.00
0.00 0.00 0.00 0.00 0.00 0.00 0.00 0.00 0.00 0.00 0.00 0.00 0.00 0.00 0.00 0.00 0.00 0.01 0.01 0.00 0.00 0.00 0.00 0.00 0.00 0.00 0.00 0.00 0.00 0.00 0.00 0.00 0.00 0.00 0.00 0.00 0.00 0.00 0.00 0.00 0.00 0.00 0.00
0.00 0.00 0.00 0.00 0.00 0.00 0.00 0.00 0.00 0.00 0.00 0.00 0.00 0.00 0.00 0.00 0.00 0.01 0.00 0.00 0.00 0.00 0.00 0.00 0.00 0.00 0.00 0.00 0.00 0.00 0.00 0.00 0.00 0.00 0.00 0.00 0.00 0.00 0.00 0.00 0.00 0.00 0.00
0.00 0.00 0.00 0.00 0.00 0.00 0.00 0.00 0.00 0.00 0.00 0.00 0.00 0.00 0.00 0.00 0.00 0.00 0.00 0.00 0.00 0.00 0.00 0.00 0.00 0.00 0.00 0.00 0.00 0.00 0.00 0.00 0.00 0.00 0.00 0.00 0.00 0.00 0.00 0.00 0.00 0.00 0.00
0.00 0.00 0.00 0.00 0.00 0.00 0.00 0.00 0.00 0.00 0.00 0.00 0.00 0.00 0.00 0.00 0.00 0.00 0.00 0.00 0.00 0.00 0.00 0.00 0.00 0.00 0.00 0.00 0.00 0.00 0.00 0.00 0.00 0.00 0.00 0.00 0.00 0.00 0.00 0.00 0.00 0.00 0.00
0.00 0.00 0.00 0.00 0.00 0.00 0.00 0.00 0.00 0.00 0.00 0.00 0.00 0.00 0.00 0.00 0.00 0.00 0.00 0.00 0.00 0.00 0.00 0.00 0.00 0.00 0.00 0.00 0.00 0.00 0.00 0.00 0.00 0.00 0.00 0.00 0.00 0.00 0.00 0.00 0.00 0.00 0.00
0.00 0.00 0.00 0.00 0.00 0.00 0.00 0.00 0.00 0.00 0.00 0.00 0.00 0.00 0.00 0.00 0.00 0.00 0.00 0.00 0.00 0.00 0.00 0.00 0.00 0.00 0.00 0.00 0.00 0.00 0.00 0.00 0.00 0.00 0.00 0.00 0.00 0.00 0.00 0.00 0.00 0.00 0.00
0.00 0.00 0.00 0.00 0.00 0.00 0.00 0.00 0.00 0.00 0.00 0.00 0.00 0.00 0.00 0.00 0.00 0.00 0.00 0.00 0.00 0.00 0.00 0.00 0.00 0.00 0.00 0.00 0.00 0.00 0.00 0.00 0.00 0.00 0.00 0.00 0.00 0.00 0.00 0.00 0.00 0.00 0.00
0.00 0.00 0.00 0.00 0.00 0.00 0.00 0.00 0.00 0.00 0.00 0.00 0.00 0.00 0.00 0.00 0.00 0.00 0.00 0.00 0.00 0.00 0.00 0.00 0.00 0.00 0.00 0.00 0.00 0.00 0.00 0.00 0.00 0.00 0.00 0.00 0.00 0.00 0.00 0.00 0.00 0.00 0.00
0.00 0.00 0.00 0.00 0.00 0.00 0.00 0.00 0.00 0.00 0.00 0.00 0.00 0.00 0.00 0.00 0.00 0.00 0.00 0.00 0.00 0.00 0.00 0.00 0.00 0.00 0.00 0.00 0.00 0.00 0.01 0.00 0.00 0.00 0.00 0.00 0.00 0.00 0.00 0.00 0.00 0.00 0.00
MSLP
1016.65 1016.72 1016.63 1016.64 1016.65 1016.59 1016.33 1016.02 1015.68 1015.35 1014.97 1014.50 1013.96 1013.42 1012.89 1012.38 1011.81 1011.25 1010.62 1009.91 1009.45 1008.95 1008.45 1007.73 1006.89 1006.03 1005.23 1004.63 1004.05 1003.62 1002.96 1002.25 1001.10 999.30 999.07 998.26 997.54 996.90 995.66 995.26 994.35 993.74 992.95
1017.05 1017.10 1017.30 1017.26 1017.05 1016.80 1016.56 1016.22 1015.81 1015.39 1014.93 1014.52 1013.99 1013.49 1012.98 1012.45 1011.86 1011.24 1010.59 1010.06 1009.35 1008.71 1008.11 1007.44 1006.62 1005.73 1005.22 1004.68 1004.09 1003.45 1002.69 1001.74 1001.50 1000.10 998.85 997.93 997.66 996.97 995.75 994.87 993.77 993.17 992.38
1017.44 1017.44 1017.43 1017.44 1017.35 1017.14 1016.80 1016.25 1015.82 1015.42 1014.97 1014.47 1014.04 1013.54 1013.00 1012.42 1011.69 1011.00 1010.43 1009.77 1009.13 1008.54 1007.89 1007.32 1006.72 1005.84 1005.00 1004.43 1003.92 1003.08 1002.08 1001.37 1001.14 1000.32 998.35 997.64 997.03 996.51 995.34 994.54 993.62 992.45 991.65
1017.70 1017.74 1017.81 1017.65 1017.46 1017.23 1016.89 1016.37 1015.92 1015.53 1015.15 1014.61 1014.07 1013.56 1012.95 1012.32 1011.59 1010.82 1010.12 1009.39 1008.78 1008.07 1007.72 1007.20 1006.45 1005.75 1005.03 1004.22 1003.40 1002.62 1001.53 1001.00 1000.30 999.54 998.41 997.54 996.87 995.75 995.27 994.19 992.77 992.33 991.23
1017.98 1018.15 1018.01 1017.75 1017.53 1017.22 1016.91 1016.41 1015.96 1015.60 1015.17 1014.64 1014.02 1013.46 1012.87 1012.29 1011.42 1010.69 1009.91 1009.23 1008.54 1007.86 1007.33 1006.79 1006.11 1005.50 1004.79 1004.02 1003.21 1002.08 1001.27 1000.47 999.57 998.84 998.14 997.24 996.43 995.48 994.86 993.80 992.65 991.32 990.51
1018.08 1018.14 1018.04 1017.77 1017.54 1017.34 1016.91 1016.37 1015.90 1015.55 1015.15 1014.57 1013.99 1013.39 1012.66 1012.02 1011.33 1010.55 1009.92 1009.10 1008.35 1007.79 1006.98 1006.25 1005.59 1004.87 1004.19 1003.49 1002.73 1001.84 1000.96 1000.01 999.10 998.40 997.66 996.83 995.84 995.24 994.09 993.02 991.99 991.00 989.24
1017.95 1017.83 1017.96 1017.86 1017.66 1017.25 1016.82 1016.44 1016.07 1015.54 1014.95 1014.50 1013.88 1013.26 1012.63 1012.03 1011.23 1010.42 1009.65 1008.87 1008.27 1007.54 1006.67 1005.82 1004.98 1004.30 1003.75 1002.93 1001.90 1000.95 1000.26 999.46 998.75 997.84 996.85 996.08 995.02 994.08 993.05 992.21 991.58 990.50 989.19
1018.01 1018.02 1018.06 1017.87 1017.57 1017.25 1016.93 1016.54 1016.00 1015.45 1015.05 1014.42 1013.81 1013.22 1012.54 1011.86 1010.98 1010.13 1009.29 1008.53 1007.82 1007.00 1006.20 1005.40 1004.69 1003.92 1003.06 1002.14 1001.14 1000.41 999.73 998.71 997.81 996.81 995.76 994.83 993.83 992.76 992.21 991.63 990.75 989.75 988.54
1018.33 1018.31 1018.01 1017.80 1017.58 1017.32 1016.86 1016.40 1015.93 1015.47 1014.92 1014.21 1013.65 1013.00 1012.39 1011.39 1010.65 1009.86 1008.92 1008.10 1007.20 1006.32 1005.49 1004.91 1004.41 1003.40 1002.39 1001.51 1000.70 999.73 998.55 997.61 996.79 995.81 994.90 993.94 993.00 992.11 991.70 990.94 990.03 989.24 987.68
1018.51 1018.25 1017.95 1017.83 1017.57 1017.12 1016.86 1016.34 1015.83 1015.38 1014.68 1013.92 1013.23 1012.76 1011.99 1011.10 1010.37 1009.41 1008.56 1007.70 1006.67 1005.76 1005.09 1004.38 1003.60 1002.78 1001.57 1000.83 1000.05 999.07 998.18 997.19 995.93 994.66 993.85 993.17 992.62 991.74 990.98 990.42 989.57 988.75 987.93
1018.44 1018.23 1017.98 1017.55 1017.42 1017.00 1016.59 1016.16 1015.53 1014.97 1014.37 1013.77 1012.90 1012.10 1011.55 1010.94 1009.97 1009.02 1008.20 1007.19 1006.34 1005.38 1004.66 1003.49 1002.75 1002.11 1001.33 1000.55 999.63 998.76 997.96 996.39 995.36 994.61 993.49 992.52 991.60 990.80 990.16 989.66 988.98 988.42 987.62
1018.38 1018.16 1017.86 1017.49 1017.19 1016.77 1016.41 1015.72 1015.22 1014.72 1014.11 1013.31 1012.48 1011.68 1011.04 1010.30 1009.59 1008.75 1007.79 1006.86 1005.92 1005.13 1004.10 1003.13 1002.43 1001.78 1001.02 1000.13 999.15 998.34 997.18 996.06 995.44 994.35 993.31 992.00 991.00 990.07 989.31 988.64 987.98 987.44 987.06
1018.23 1017.94 1017.68 1017.37 1017.00 1016.45 1015.96 1015.38 1014.91 1014.38 1013.76 1013.01 1012.32 1011.35 1010.34 1009.74 1009.07 1008.29 1007.37 1006.49 1005.62 1004.55 1003.79 1002.96 1002.32 1001.58 1000.80 999.99 999.03 997.91 997.02 996.21 995.20 994.03 992.84 991.63 990.72 989.53 988.54 987.68 986.91 986.48 986.23
1018.16 1017.92 1017.57 1017.18 1016.51 1015.91 1015.54 1015.06 1014.58 1014.05 1013.49 1012.67 1011.77 1010.79 1009.95 1009.24 1008.63 1007.82 1006.94 1005.99 1005.10 1004.19 1003.47 1002.79 1002.11 1001.40 1000.65 999.71 998.61 997.69 996.95 996.09 994.93 993.68 992.53 991.35 990.12 988.84 987.83 987.15 986.46 986.02 985.87
1018.09 1017.69 1017.14 1016.59 1016.02 1015.48 1015.07 1014.71 1014.10 1013.59 1013.07 1011.98 1011.14 1010.48 1009.70 1008.79 1008.13 1007.20 1006.38 1005.30 1004.50 1003.71 1002.64 1002.17 1001.66 1001.07 1000.18 999.20 998.21 997.49 996.55 995.52 994.26 993.35 992.18 990.79 989.46 988.17 987.32 986.63 986.06 985.73 985.64
1017.81 1017.08 1016.59 1016.03 1015.58 1015.18 1014.61 1013.79 1013.68 1012.93 1012.19 1011.45 1010.78 1010.15 1009.32 1008.68 1007.78 1006.87 1005.99 1005.10 1004.39 1003.55 1002.74 1002.07 1001.61 1001.07 1000.21 999.22 998.19 997.08 996.16 995.06 993.91 992.84 991.60 990.38 989.10 987.72 986.92 986.18 985.77 985.53 985.55
1017.22 1016.65 1016.11 1015.70 1015.39 1015.00 1014.39 1013.72 1012.60 1011.75 1011.51 1010.88 1010.32 1009.67 1009.08 1008.16 1007.28 1006.48 1005.68 1004.92 1004.42 1003.74 1003.10 1002.22 1001.78 1001.02 1000.09 999.21 998.20 997.16 995.89 994.67 993.52 992.39 991.23 989.83 988.57 987.48 986.70 986.07 985.75 985.76 985.97
1016.82 1016.35 1015.88 1015.49 1015.04 1014.44 1013.91 1013.24 1012.66 1011.81 1010.76 1010.11 1009.82 1009.39 1008.58 1007.79 1007.01 1006.07 1005.42 1004.90 1004.40 1003.84 1003.25 1002.45 1001.64 1000.87 1000.01 998.98 997.92 996.84 995.49 994.17 993.09 991.92 990.69 989.47 988.16 987.37 986.62 986.11 985.94 986.11 986.37
1016.40 1015.99 1015.54 1015.01 1014.45 1013.93 1013.42 1012.87 1012.32 1011.64 1010.84 1010.10 1009.41 1008.80 1008.27 1007.53 1006.60 1006.00 1005.66 1005.24 1004.58 1003.80 1002.98 1002.25 1001.55 1000.65 999.72 998.71 997.61 996.38 995.19 993.91 992.72 991.60 990.31 989.05 988.13 987.39 986.79 986.45 986.40 986.50 986.79
1016.14 1015.51 1015.04 1014.51 1013.98 1013.50 1013.09 1012.48 1011.91 1011.31 1010.58 1009.89 1009.21 1008.48 1007.78 1007.03 1006.30 1005.97 1005.52 1005.04 1004.39 1003.62 1002.87 1002.09 1001.22 1000.34 999.41 998.31 997.12 995.95 994.73 993.61 992.45 991.39 990.22 989.08 988.38 987.83 987.51 987.36 987.30 987.33 987.47
1015.67 1015.14 1014.68 1014.20 1013.66 1013.12 1012.64 1012.11 1011.57 1010.92 1010.21 1009.59 1008.99 1008.31 1007.45 1006.75 1006.44 1005.93 1005.36 1004.72 1004.08 1003.40 1002.68 1001.86 1000.93 1000.00 999.00 997.91 996.73 995.61 994.54 993.40 992.36 991.33 990.27 989.61 989.18 988.78 988.49 988.28 988.20 988.18 988.18
1015.21 1014.72 1014.24 1013.75 1013.17 1012.70 1012.20 1011.53 1011.07 1010.50 1009.90 1009.34 1008.66 1008.01 1007.29 1006.93 1006.32 1005.77 1005.11 1004.45 1003.83 1003.23 1002.49 1001.64 1000.66 999.68 998.69 997.50 996.46 995.32 994.19 993.14 992.16 991.30 990.49 990.07 989.69 989.37 989.18 989.04 988.88 988.75 988.65
1014.63 1014.19 1013.74 1013.31 1012.81 1012.20 1011.71 1011.16 1010.68 1010.21 1009.64 1009.17 1008.60 1007.85 1007.26 1006.68 1006.14 1005.54 1004.89 1004.23 1003.56 1002.83 1002.09 1001.36 1000.31 999.17 998.11 997.04 996.00 995.17 994.10 992.99 992.03 991.22 990.87 990.52 990.17 989.96 989.80 989.65 989.47 989.30 989.12
1014.04 1013.72 1013.31 1012.83 1012.37 1011.74 1011.30 1010.86 1010.37 1009.96 1009.45 1008.95 1008.42 1007.71 1007.12 1006.55 1005.94 1005.28 1004.64 1003.99 1003.26 1002.52 1001.80 1000.93 999.97 998.91 997.59 996.46 995.47 994.50 993.56 992.62 991.70 991.33 991.14 991.02 990.76 990.57 990.40 990.17 989.87 989.70 989.35
1013.58 1013.27 1012.88 1012.45 1011.96 1011.52 1011.12 1010.73 1010.18 1009.73 1009.29 1008.80 1008.13 1007.45 1006.82 1006.27 1005.64 1005.02 1004.30 1003.66 1002.96 1002.23 1001.37 1000.53 999.51 998.32 997.13 996.04 994.98 994.03 993.06 991.84 991.69 991.67 991.49 991.46 991.18 990.87 990.60 990.36 990.13 989.83 989.43
1013.15 1012.84 1012.47 1012.08 1011.66 1011.29 1010.89 1010.40 1009.92 1009.42 1008.91 1008.37 1007.74 1007.18 1006.63 1005.97 1005.32 1004.57 1003.94 1003.40 1002.72 1001.96 1001.18 1000.08 999.00 997.78 996.67 995.56 994.51 993.71 992.43 992.12 992.07 991.85 991.79 991.73 991.49 991.09 990.79 990.59 990.15 989.68 989.44
Thickness
5583 5577 5572 5567 5562 5556 5551 5546 5541 5535 5529 5524 5519 5513 5508 5502 5495 5490 5484 5479 5472 5464 5454 5448 5444 5440 5440 5438 5435 5432 5431 5428 5425 5454 5450 5458 5460 5463 5476 5477 5486 5490 5499
5569 5563 5556 5551 5546 5540 5534 5529 5524 5518 5513 5507 5501 5495 5487 5479 5472 5466 5460 5450 5445 5439 5431 5425 5423 5423 5419 5417 5415 5414 5413 5415 5404 5412 5435 5440 5437 5441 5450 5458 5468 5473 5481
5555 5549 5542 5536 5529 5522 5516 5513 5507 5502 5495 5489 5481 5473 5465 5456 5448 5439 5431 5426 5419 5413 5410 5404 5400 5400 5400 5398 5395 5395 5399 5398 5390 5388 5411 5419 5422 5424 5431 5437 5446 5457 5465
5540 5534 5526 5519 5512 5506 5500 5496 5490 5484 5475 5468 5460 5450 5439 5429 5418 5411 5406 5402 5398 5396 5389 5384 5382 5379 5377 5378 5378 5377 5379 5375 5376 5375 5383 5392 5396 5409 5406 5414 5429 5434 5447
5525 5516 5508 5502 5496 5491 5485 5479 5472 5464 5455 5446 5437 5425 5413 5401 5394 5389 5387 5383 5380 5378 5373 5367 5363 5359 5357 5354 5352 5358 5353 5352 5357 5357 5359 5364 5371 5380 5383 5392 5401 5421 5433
5510 5503 5495 5488 5481 5474 5468 5461 5453 5443 5432 5422 5411 5401 5393 5384 5377 5372 5363 5361 5359 5353 5350 5347 5342 5338 5334 5331 5329 5327 5326 5323 5328 5330 5332 5338 5349 5351 5362 5371 5381 5394 5418
5497 5489 5480 5473 5464 5456 5448 5440 5430 5422 5411 5400 5389 5378 5373 5365 5360 5354 5346 5340 5333 5327 5322 5317 5315 5310 5301 5298 5301 5300 5299 5302 5300 5304 5311 5318 5326 5334 5344 5350 5358 5371 5393
5481 5472 5464 5455 5446 5437 5428 5418 5408 5400 5387 5377 5370 5362 5356 5350 5343 5335 5326 5319 5312 5306 5299 5293 5286 5282 5277 5271 5270 5269 5272 5279 5285 5292 5300 5301 5309 5321 5326 5331 5343 5355 5373
5464 5454 5446 5438 5429 5419 5408 5397 5386 5377 5369 5363 5354 5348 5339 5337 5324 5313 5303 5297 5294 5291 5286 5278 5268 5264 5260 5255 5250 5252 5261 5269 5275 5282 5287 5293 5297 5307 5312 5319 5330 5339 5362
5448 5438 5430 5420 5409 5398 5386 5376 5366 5357 5353 5349 5344 5331 5323 5315 5305 5296 5287 5280 5279 5277 5275 5268 5262 5256 5255 5250 5245 5246 5248 5255 5266 5277 5282 5284 5286 5295 5304 5310 5320 5331 5342
5431 5421 5411 5400 5389 5377 5368 5357 5351 5345 5339 5333 5330 5321 5308 5294 5287 5282 5275 5270 5266 5267 5263 5263 5257 5251 5247 5244 5243 5240 5240 5251 5260 5264 5273 5279 5286 5293 5301 5307 5314 5321 5333
5413 5403 5394 5383 5370 5361 5351 5345 5338 5330 5324 5318 5313 5309 5296 5285 5275 5269 5266 5262 5258 5255 5255 5254 5248 5243 5241 5240 5240 5239 5242 5247 5248 5256 5264 5275 5284 5293 5301 5308 5316 5322 5327
5397 5387 5377 5366 5355 5346 5338 5333 5326 5317 5308 5302 5295 5291 5285 5276 5267 5261 5257 5255 5252 5251 5247 5244 5239 5236 5236 5235 5234 5236 5238 5238 5244 5252 5263 5274 5282 5294 5304 5312 5319 5322 5327
5380 5370 5361 5351 5345 5337 5327 5318 5310 5303 5295 5289 5283 5278 5271 5265 5258 5253 5251 5249 5247 5245 5241 5238 5234 5231 5229 5229 5231 5231 5231 5235 5243 5253 5263 5274 5286 5298 5306 5312 5319 5324 5327
5366 5356 5347 5340 5331 5327 5319 5308 5302 5294 5282 5275 5268 5259 5253 5253 5249 5245 5241 5241 5239 5237 5239 5236 5232 5228 5227 5228 5229 5229 5232 5238 5248 5255 5265 5277 5289 5300 5307 5313 5319 5325 5329
5352 5345 5336 5330 5322 5315 5309 5308 5296 5288 5281 5269 5258 5250 5246 5238 5236 5235 5233 5231 5229 5229 5229 5228 5224 5220 5220 5224 5226 5231 5235 5243 5253 5260 5269 5278 5288 5300 5307 5316 5321 5327 5329
5337 5331 5324 5316 5307 5300 5295 5291 5294 5293 5276 5264 5252 5245 5238 5233 5230 5227 5224 5223 5219 5218 5217 5219 5215 5215 5217 5220 5224 5230 5239 5248 5256 5263 5269 5279 5290 5301 5310 5317 5322 5324 5323
5321 5315 5308 5301 5296 5292 5286 5282 5275 5271 5269 5262 5247 5237 5233 5227 5223 5220 5216 5215 5213 5211 5209 5211 5211 5212 5216 5221 5228 5236 5245 5254 5259 5266 5273 5282 5296 5303 5312 5319 5321 5320 5319
5309 5303 5297 5293 5289 5284 5277 5270 5263 5257 5251 5244 5238 5232 5226 5221 5219 5213 5208 5204 5204 5205 5207 5207 5208 5212 5218 5225 5234 5242 5249 5256 5262 5267 5277 5289 5298 5305 5312 5317 5319 5320 5320
5298 5293 5288 5284 5279 5272 5264 5258 5252 5245 5238 5232 5227 5223 5220 5217 5213 5207 5204 5201 5201 5203 5204 5205 5209 5215 5223 5232 5240 5247 5253 5259 5264 5271 5280 5291 5297 5303 5307 5310 5312 5315 5317
5287 5282 5278 5271 5265 5260 5254 5247 5239 5233 5228 5224 5219 5215 5214 5210 5204 5201 5200 5200 5201 5201 5203 5206 5212 5220 5230 5238 5245 5251 5256 5262 5269 5277 5288 5292 5296 5300 5304 5307 5309 5310 5311
5275 5272 5267 5262 5257 5250 5243 5238 5230 5223 5218 5214 5212 5209 5208 5203 5201 5199 5200 5200 5200 5201 5203 5209 5217 5228 5235 5243 5249 5255 5262 5270 5278 5285 5293 5295 5299 5303 5304 5304 5305 5304 5304
5266 5263 5257 5251 5245 5241 5233 5227 5219 5212 5209 5205 5202 5201 5200 5199 5198 5198 5199 5199 5201 5204 5208 5214 5225 5235 5243 5249 5255 5260 5269 5278 5285 5292 5296 5297 5299 5298 5298 5297 5297 5299 5301
5257 5252 5246 5241 5235 5230 5222 5214 5207 5202 5199 5196 5193 5193 5193 5193 5194 5196 5198 5200 5203 5208 5214 5222 5232 5240 5250 5257 5265 5273 5281 5288 5296 5298 5298 5296 5294 5294 5293 5294 5293 5292 5292
5247 5240 5234 5228 5223 5216 5207 5199 5195 5192 5189 5186 5186 5187 5187 5188 5192 5195 5198 5202 5207 5213 5222 5230 5240 5249 5257 5267 5276 5284 5292 5303 5304 5299 5296 5295 5293 5293 5292 5291 5288 5283 5283
5236 5229 5222 5216 5209 5200 5192 5188 5185 5183 5181 5181 5180 5180 5182 5186 5191 5196 5200 5204 5211 5220 5228 5238 5248 5258 5268 5278 5287 5295 5306 5308 5306 5305 5300 5296 5294 5294 5291 5286 5288 5292 5289